Retour au catalogue

SL-14 R/B

ActifPO
NORAD 13114·ROCKET BODY·🇷🇺 Russia

Lancé Mar 25, 1982 depuis Plesetsk Cosmodrome

Loading…

Prochains Passages (prochaines 24 heures)

TLE

FraisSource: Space-Track

Époque: Sep 14, 2026, 16:19 UTC

1 13114U 82025B   26257.68011440  .00000023  00000-0  67624-5 0  9998
2 13114  82.5407  35.8443 0015184  30.6821 340.4333 13.84793673247424

Suivez SL-14 R/B en temps réel avec AllMySat

Download on the App Store